Hourly Data Report for July 25, 2021

BONAVISTA
NEWFOUNDLAND
Current Station Operator: ECCC - MSC

48°40'02.000" N
53°06'51.000" W
25.60 m
8400601
71178
AVA

Download Data

Hourly Data (July 2021)
Hourly Data Report for July 25, 2021
TIME
LST
Temp Definition
°C
Dew Point Definition
°C
Rel Hum Definition
%
Precip. Amount Definition
mm

Wind Dir Definition
10's deg

Wind Spd Definition
km/h
Visibility Definition
km
Stn Press Definition
kPa
Hmdx Definition


Wind Chill Definition


Weather Definition


00:30 12.4 11.7 96 0.0 33 20   101.02     LegendNANA
01:30 11.5 11.1 97 0.0 33 24   101.06     LegendNANA
02:30 11.7 11.2 97 0.0 32 25   101.14     LegendNANA
03:30 11.4 10.9 97 0.0 32 29   101.19     LegendNANA
04:30 11.6 11.0 96 0.0 33 27   101.24     LegendNANA
05:30 11.9 10.9 94 0.0 34 26   101.28     LegendNANA
06:30 11.9 10.8 93 0.0 33 22   101.37     LegendNANA
07:30 12.3 11.3 94 0.0 33 14   101.42     LegendNANA
08:30 12.8 11.0 89 0.0 35 14   101.43     LegendNANA
09:30 13.2 11.1 87 0.0 35 10   101.47     LegendNANA
10:30 14.0 10.9 82 0.0 35 12   101.48     LegendNANA
11:30 14.7 11.3 80 0.0 2 14   101.47     LegendNANA
12:30 14.4 11.2 81 0.0 4 12   101.45     LegendNANA
13:30 14.9 11.1 78 0.0 5 14   101.39     LegendNANA
14:30 14.6 11.2 80 0.0 7 17   101.41     LegendNANA
15:30 16.0 11.6 75 0.0 8 19   101.42     LegendNANA
16:30 16.6 11.5 72 0.0 14 18   101.38     LegendNANA
17:30 15.9 11.4 75 0.0 15 22   101.38     LegendNANA
18:30 14.6 11.3 81 0.0 16 24   101.38     LegendNANA
19:30 12.6 10.8 88 0.0 16 29   101.37     LegendNANA
20:30 11.8 11.1 95 0.0 16 29   101.39     LegendNANA
21:30 12.0 11.4 96 0.0 16 28   101.39     LegendNANA
22:30 12.1 11.5 96 0.0 16 22   101.40     LegendNANA
23:30 11.7 11.2 97 0.0 16 19   101.35     LegendNANA

Notes on Data Quality.

Legend

  • E = Estimated
  • M = Missing
  • NA = Not Available*
  • [empty] = Indicates an unobserved value
Date modified: